Regional Weather Roundup
Issued by NWS

Home | Current Version | Previous Version | Text Only | Print | Product List | Glossary Off
Versions: 1 2 3 4 5 6 7 8 9 10 11 12 13 14 15 16 17 18 19 20 21 22 23 24 25 26 27 28 29 30 31 32 33 34 35 36 37 38 39 40 41 42 43 44 45 46 47 48 49 50

826
ASUS44 KLIX 151405
RWRLA
LOUISIANA WEATHER ROUNDUP
NATIONAL WEATHER SERVICE NEW ORLEANS LA
900 AM CDT TUE APR 15 2014

NOTE: "FAIR" INDICATES FEW OR NO CLOUDS BELOW 12,000 FEET WITH NO
      SIGNIFICANT WEATHER AND/OR OBSTRUCTIONS TO VISIBILITY.
      SKY/WX - SKY CONDITION AND SIGNIFICANT WEATHER.
      TMP - AIR TEMPERATURE.    DP   - DEWPOINT TEMPERATURE.
      RH  - RELATIVE HUMIDITY.  PRES - PRESSURE.
      HX  - HEAT INDEX.         WCI  - WIND CHILL INDEX.

*  THESE STATIONS ARE NOT NWS OR FAA STATIONS AND ARE NOT UNDER
   NWS QUALITY CONTROL.

LAZ040-048-061>063-065-066-069-151500-
SOUTHEAST LOUISIANA

CITY           SKY/WX    TMP DP  RH WIND       PRES   REMARKS
N.O. AUDUBON     N/A     50  45  81 MISG        N/A
N.O. INTL ARPT CLOUDY    47  40  76 N20G30    30.11R
N.O. LAKEFRONT CLOUDY    48  42  80 N28G37    30.10R
N.O. DOWNTOWN* CLOUDY    48  37  66 N12G18    30.10R
SLIDELL        CLOUDY    47  38  71 N14G21    30.09R
BATON ROUGE    CLOUDY    46  33  60 N12G20    30.17R
BOOTHVILLE     CLOUDY    50  46  86 NW25G37   30.04R
BELLE CHASSE   CLOUDY    49  39  68 N12G29    30.08R
BOGALUSA*        N/A     46  37  70 N16G25    30.12R
GALLIANO*      CLOUDY    49  42  74 NW20G31   30.08S
NEW ROADS*     CLOUDY    45  33  64 NW17G24   30.19R
GONZALES*      CLOUDY    45  36  70 N18G26    30.15R
HAMMOND*       CLOUDY    45  37  76 N15G23    30.15R
HOUMA*         PTSUNNY   46  37  71 N21G29    30.12R
PORT FOURCHON* CLOUDY    48  41  76 N24G31    30.09R

$$

LAZ041-044-053-054-151500-
SOUTHWEST LOUISIANA

CITY           SKY/WX    TMP DP  RH WIND       PRES   REMARKS
LAKE CHARLES   SUNNY     46  32  58 N24G30    30.23R
LAFAYETTE      PTSUNNY   46  35  65 N22G29    30.19R
PATTERSON      CLOUDY    46  37  71 N18         N/A
SALT POINT       N/A     49  38  65 N13G23    30.14R
NEW IBERIA     CLOUDY    48  36  63 N22       30.18R
CHENAULT AIRPK SUNNY     45  34  65 N12G23    30.24R

$$

LAZ027-028-151500-
CENTRAL LOUISIANA

CITY           SKY/WX    TMP DP  RH WIND       PRES   REMARKS
FORT POLK      SUNNY     43  29  57 N15G23    30.24R
ALEXANDRIA INT SUNNY     44  30  57 N14G23    30.23R
ALEXANDRIA     SUNNY     45  31  58 N10G20    30.23R

$$

LAZ001-002-151500-
NORTHWEST LOUISIANA

CITY           SKY/WX    TMP DP  RH WIND       PRES   REMARKS
SHREVEPORT     SUNNY     46  28  49 N12       30.29R
BARKSDALE AFB  SUNNY     44  31  60 N8        30.29R
DTN SHREVEPORT SUNNY     43  30  60 N7        30.30R

$$

LAZ014-016-151500-
NORTHEAST LOUISIANA

CITY           SKY/WX    TMP DP  RH WIND       PRES   REMARKS
MONROE         SUNNY     44  28  53 N16G25    30.26R
TALLULAH       SUNNY     46  34  62 N12G21    30.22R

$$




USA.gov is the U.S. government's official web portal to all federal, state and local government web resources and services.